Location: B�hl
(48.6968°N, 8.1352°E)
Time: 03:27:17
(UTC+00:00)

Cosmos 1066 Rocket - Pass Details

Date: 08 March 2021
Orbit: 799 x 894 km, 81.2° (Epoch: 16 April)

Event Time Altitude Azimuth Distance (km) Brightness Sun altitude
Rises 18:28:39 0° 350° (N) 3,459 7.6 -11.8°
Reaches altitude 10° 18:31:07 10° 353° (N) 2,530 6.9 -12.2°
Maximum altitude 18:36:51 65° 75° (ENE) 972 4.3 -13.1°
Drops below altitude 10° 18:42:38 10° 158° (SSE) 2,554 6.4 -14.0°
Sets 18:45:07 0° 161° (SSE) 3,493 7.1 -14.5°
